Tracking 22993 objects as of 12-May-2021
HD Live streaming from Space Station
objects crossing your sky now

BRAZILSAT B2

Track BRAZILSAT B2 now!
BRAZILSAT B2 is classified as:


NORAD ID: 23536
Int'l Code: 1995-016A
Perigee: 36,066.9 km
Apogee: 36,102.6 km
Inclination: 9.2 °
Period: 1,451.0 minutes
Semi major axis: 42455 km
RCS: 7.5458 m2 (large)
Launch date: March 28, 1995
Source: Brazil (BRAZ)
Launch site: FRENCH GUIANA (FRGUI)

24 C-band; several X-band.
aabbcc
Your satellite tracking list
Your tracking list is empty




NASA's NSSDC Master Catalog

Two Line Element Set (TLE):
1 23536U 95016A   21131.01768289 -.00000210  00000-0  00000-0 0  9993
2 23536   9.1724  43.4739 0004201  14.2840 167.9046  0.99242637 95605
Source of the keplerian elements: AFSPC